Zurück zum Katalog

STARLINK-3987

AktivKommunikationVLEO
NORAD 52699·PAYLOAD·🇺🇸 United States

Gestartet May 18, 2022 von Cape Canaveral Space Force Station

Loading…

Nächste Überflüge (nächste 24 Stunden)

TLE

AktuellSource: CelesTrak SupGP

Epoche: Sep 14, 2026, 21:15 UTC

1 52699C 22053AV  26257.88590278 -.00599050  00000+0 -17242-1 0  2575
2 52699  53.1599 355.7127 0001012  75.2085 356.1167 15.35511208    17

Verfolge STARLINK-3987 in Echtzeit mit AllMySat

Download on the App Store